Location: Guilderland
(42.7045°N, 73.9115°W)
Time: 04:33:22
(UTC+00:00)

SL-8 R/B - Pass Details

Date: 24 January 2020
Orbit: 656 x 668 km, 48.4° (Epoch: 17 February)

Event Time Altitude Azimuth Distance (km) Brightness Sun altitude
Rises 22:42:28 0° 241° (WSW) 2,993 9.2 -8.4°
Reaches altitude 10° 22:44:48 10° 242° (WSW) 2,081 7.8 -8.8°
Maximum altitude 22:49:38 89° 151° (SSE) 668 3.7 -9.7°
Enters shadow 22:53:51 14° 64° (ENE) 1,851 5.3 -10.4°
